TimeCDT,TemperatureF,Dew PointF,Humidity,Sea Level PressureIn,VisibilityMPH,Wind Direction,Wind SpeedMPH,Gust SpeedMPH,PrecipitationIn,Events,Conditions,WindDirDegrees,DateUTC
12:15 AM,39.2,35.6,87,29.94,10.0,Calm,Calm,-,N/A,,Clear,0,2012-10-03 05:15:00
12:35 AM,39.2,35.6,87,29.94,10.0,Calm,Calm,-,N/A,,Clear,0,2012-10-03 05:35:00
12:55 AM,39.2,35.6,87,29.94,10.0,Calm,Calm,-,N/A,,Clear,0,2012-10-03 05:55:00
1:15 AM,39.2,35.6,87,29.95,10.0,Calm,Calm,-,N/A,,Clear,0,2012-10-03 06:15:00
1:35 AM,37.4,35.6,93,29.95,10.0,Calm,Calm,-,N/A,,Clear,0,2012-10-03 06:35:00
1:55 AM,37.4,35.6,93,29.95,10.0,Calm,Calm,-,N/A,,Clear,0,2012-10-03 06:55:00
2:15 AM,37.4,35.6,93,29.95,10.0,Calm,Calm,-,N/A,,Clear,0,2012-10-03 07:15:00
2:35 AM,37.4,33.8,87,29.95,10.0,Calm,Calm,-,N/A,,Clear,0,2012-10-03 07:35:00
2:55 AM,37.4,33.8,87,29.95,10.0,Calm,Calm,-,N/A,,Clear,0,2012-10-03 07:55:00
3:15 AM,37.4,33.8,87,29.95,10.0,Calm,Calm,-,N/A,,Clear,0,2012-10-03 08:15:00
3:35 AM,37.4,35.6,93,29.94,10.0,Calm,Calm,-,N/A,,Clear,0,2012-10-03 08:35:00
3:55 AM,35.6,33.8,93,29.95,10.0,Calm,Calm,-,N/A,,Clear,0,2012-10-03 08:55:00
4:15 AM,35.6,33.8,93,29.95,10.0,Calm,Calm,-,N/A,,Clear,0,2012-10-03 09:15:00
4:35 AM,37.4,35.6,93,29.95,10.0,Calm,Calm,-,N/A,,Clear,0,2012-10-03 09:35:00
4:55 AM,35.6,33.8,93,29.95,10.0,Calm,Calm,-,N/A,,Clear,0,2012-10-03 09:55:00
5:15 AM,33.8,33.8,100,29.95,10.0,Calm,Calm,-,N/A,,Clear,0,2012-10-03 10:15:00
5:35 AM,35.6,33.8,93,29.96,10.0,Calm,Calm,-,N/A,,Clear,0,2012-10-03 10:35:00
5:55 AM,33.8,33.8,100,29.95,10.0,Calm,Calm,-,N/A,,Clear,0,2012-10-03 10:55:00
6:15 AM,33.8,33.8,100,29.96,10.0,Calm,Calm,-,N/A,,Clear,0,2012-10-03 11:15:00
6:35 AM,35.6,33.8,93,29.96,10.0,Calm,Calm,-,N/A,,Clear,0,2012-10-03 11:35:00
6:55 AM,35.6,33.8,93,29.96,10.0,Calm,Calm,-,N/A,,Clear,0,2012-10-03 11:55:00
7:15 AM,33.8,32.0,93,29.96,10.0,Calm,Calm,-,N/A,,Clear,0,2012-10-03 12:15:00
7:35 AM,33.8,33.8,100,29.96,10.0,Calm,Calm,-,N/A,,Clear,0,2012-10-03 12:35:00
7:55 AM,35.6,33.8,93,29.96,10.0,Calm,Calm,-,N/A,,Clear,0,2012-10-03 12:55:00
8:15 AM,35.6,35.6,100,29.97,7.0,Calm,Calm,-,N/A,,Clear,0,2012-10-03 13:15:00
8:35 AM,39.2,37.4,93,29.97,10.0,Calm,Calm,-,N/A,,Clear,0,2012-10-03 13:35:00
8:55 AM,42.8,39.2,87,29.96,10.0,Calm,Calm,-,N/A,,Clear,0,2012-10-03 13:55:00
9:15 AM,46.4,42.8,87,29.96,10.0,Calm,Calm,-,N/A,,Clear,0,2012-10-03 14:15:00
9:35 AM,51.8,42.8,71,29.96,7.0,Calm,Calm,-,N/A,,Clear,0,2012-10-03 14:35:00
9:55 AM,55.4,42.8,63,29.96,7.0,South,4.6,-,N/A,,Clear,180,2012-10-03 14:55:00
10:15 AM,60.8,41.0,48,29.96,10.0,South,8.1,-,N/A,,Clear,170,2012-10-03 15:15:00
10:35 AM,64.4,37.4,37,29.95,10.0,South,8.1,-,N/A,,Clear,180,2012-10-03 15:35:00
10:55 AM,66.2,35.6,32,29.95,10.0,South,12.7,18.4,N/A,,Clear,170,2012-10-03 15:55:00
11:15 AM,69.8,35.6,28,29.94,10.0,South,12.7,17.3,N/A,,Clear,180,2012-10-03 16:15:00
11:35 AM,71.6,33.8,25,29.94,10.0,South,11.5,19.6,N/A,,Clear,180,2012-10-03 16:35:00
11:55 AM,71.6,33.8,25,29.93,10.0,South,12.7,-,N/A,,Clear,190,2012-10-03 16:55:00
12:15 PM,73.4,33.8,23,29.92,10.0,South,13.8,21.9,N/A,,Clear,180,2012-10-03 17:15:00
12:55 PM,75.2,33.8,22,29.91,10.0,South,15.0,20.7,N/A,,Clear,170,2012-10-03 17:55:00
1:15 PM,75.2,33.8,22,29.90,10.0,South,13.8,20.7,N/A,,Clear,190,2012-10-03 18:15:00
1:35 PM,75.2,32.0,21,29.89,10.0,South,12.7,20.7,N/A,,Clear,190,2012-10-03 18:35:00
1:55 PM,75.2,30.2,19,29.88,10.0,South,15.0,25.3,N/A,,Clear,190,2012-10-03 18:55:00
2:15 PM,75.2,30.2,19,29.87,10.0,South,16.1,24.2,N/A,,Clear,180,2012-10-03 19:15:00
2:35 PM,77.0,30.2,18,29.87,10.0,South,17.3,23.0,N/A,,Clear,180,2012-10-03 19:35:00
2:55 PM,77.0,28.4,17,29.87,10.0,South,15.0,24.2,N/A,,Clear,170,2012-10-03 19:55:00
3:15 PM,78.8,30.2,17,29.86,10.0,South,19.6,24.2,N/A,,Clear,170,2012-10-03 20:15:00
3:35 PM,78.8,28.4,16,29.86,10.0,South,16.1,28.8,N/A,,Clear,190,2012-10-03 20:35:00
3:55 PM,78.8,30.2,17,29.85,10.0,South,13.8,24.2,N/A,,Clear,190,2012-10-03 20:55:00
4:15 PM,78.8,28.4,16,29.86,10.0,South,20.7,-,N/A,,Clear,180,2012-10-03 21:15:00
4:35 PM,77.0,28.4,17,29.85,10.0,South,16.1,26.5,N/A,,Clear,190,2012-10-03 21:35:00
4:55 PM,77.0,28.4,17,29.85,10.0,South,17.3,25.3,N/A,,Clear,170,2012-10-03 21:55:00
5:15 PM,77.0,28.4,17,29.85,10.0,South,16.1,24.2,N/A,,Clear,170,2012-10-03 22:15:00
5:55 PM,75.2,28.4,18,29.85,7.0,South,12.7,20.7,N/A,,Clear,180,2012-10-03 22:55:00
6:15 PM,75.2,30.2,19,29.86,10.0,South,11.5,17.3,N/A,,Clear,170,2012-10-03 23:15:00
6:35 PM,73.4,30.2,20,29.86,10.0,South,11.5,-,N/A,,Clear,170,2012-10-03 23:35:00
6:55 PM,71.6,30.2,22,29.87,7.0,South,5.8,-,N/A,,Clear,170,2012-10-03 23:55:00
7:15 PM,66.2,30.2,26,29.88,10.0,South,5.8,-,N/A,,Scattered Clouds,180,2012-10-04 00:15:00
7:35 PM,64.4,32.0,30,29.89,5.0,South,6.9,-,N/A,,Haze,170,2012-10-04 00:35:00
8:15 PM,64.4,32.0,30,29.90,7.0,South,8.1,-,N/A,,Clear,170,2012-10-04 01:15:00
8:35 PM,64.4,32.0,30,29.90,10.0,South,8.1,-,N/A,,Scattered Clouds,180,2012-10-04 01:35:00
8:55 PM,62.6,32.0,32,29.90,10.0,South,8.1,-,N/A,,Clear,180,2012-10-04 01:55:00
9:35 PM,62.6,33.8,34,29.91,10.0,South,8.1,-,N/A,,Clear,180,2012-10-04 02:35:00
9:55 PM,60.8,33.8,36,29.92,10.0,South,5.8,-,N/A,,Clear,170,2012-10-04 02:55:00
10:15 PM,60.8,35.6,39,29.93,10.0,SSE,4.6,-,N/A,,Clear,160,2012-10-04 03:15:00
10:35 PM,60.8,35.6,39,29.93,10.0,South,6.9,-,N/A,,Clear,170,2012-10-04 03:35:00
10:55 PM,59.0,37.4,45,29.94,10.0,South,5.8,-,N/A,,Clear,170,2012-10-04 03:55:00
11:15 PM,60.8,37.4,42,29.94,10.0,South,8.1,-,N/A,,Scattered Clouds,180,2012-10-04 04:15:00
11:35 PM,60.8,37.4,42,29.94,10.0,South,9.2,-,N/A,,Scattered Clouds,180,2012-10-04 04:35:00
11:55 PM,60.8,39.2,45,29.94,10.0,South,8.1,-,N/A,,Clear,190,2012-10-04 04:55:00